Weather Roundup
Issued by NWS

Home | Current Version | Previous Version | Text Only | Print | Product List | Glossary On
Versions: 1 2 3 4 5 6 7 8 9 10 11 12 13 14 15 16 17 18 19 20 21 22 23 24 25 26 27 28 29 30 31 32 33 34 35 36 37 38 39 40 41 42 43 44 45 46 47 48 49 50
000
NZUS93 KARX 241559
HRRWXR

CURRENT HOURLY OBSERVATIONS ACROSS
MUCH OF THE UPPER MISSISSIPPI VALLEY
NATIONAL WEATHER SERVICE LA CROSSE WI
1100 AM CDT TUE MAY 24 2016


...SOUTHEAST MINNESOTA...


CITY           SKY/WX    TMP DP  RH WIND       PRES   REMARKS
ROCHESTER      CLOUDY    71  63  75 W10       29.92R
ROCHESTER/MAYO FAIR      71  62  73 SW9       29.92R
WINONA         MOSUNNY   73  63  68 W6        29.90R
AUSTIN         CLOUDY    72  59  64 SW8       29.92R
ALBERT LEA     CLOUDY    73  59  60 SW5       29.91R
DODGE CENTER   CLOUDY    75  57  53 W10       29.91R
PRESTON        CLOUDY    71  60  69 SW6       29.93R
OWATONNA       CLOUDY    75  55  50 SW9       29.90R
FARIBAULT      MOSUNNY   75  61  60 SW10      29.89S
$$

...ELSEWHERE IN MINNESOTA...


CITY           SKY/WX    TMP DP  RH WIND       PRES   REMARKS
MINNEAPOLIS    PTSUNNY   77  60  55 W9        29.87R
INTNL FALLS    CLOUDY    68  56  65 SW7       29.86R
DULUTH         MOSUNNY   66  56  70 E10       29.86S
RED WING       MOSUNNY   77  63  61 W9        29.86S
REDWOOD FALLS  CLOUDY    72  63  73 W6        29.86S
MANKATO        MOSUNNY   73  59  60 W13       29.88S
WORTHINGTON    MOSUNNY   67  63  87 S12       29.90R
FAIRMONT       PTSUNNY   70  63  78 SW10      29.88S
$$

...SOUTHWEST WISCONSIN...


CITY           SKY/WX    TMP DP  RH WIND       PRES   REMARKS
LA CROSSE      PTSUNNY   74  59  59 SW9       29.91R
PRAIRIE DU CHI CLOUDY    72  59  62 CALM      29.92S
BOSCOBEL       CLOUDY    76  59  55 S7        29.93R
LONE ROCK      NOT AVBL
PLATTEVILLE    CLOUDY    71  59  67 S9        29.96R
FORT MC COY    CLOUDY    73  60  64 SW6       29.92R
MAUSTON-NEW LI CLOUDY    72  59  64 S6        29.91S
VIROQUA        FAIR      72  58  62 SW6       29.94R
WIS DELLS      CLOUDY    72  54  54 SW9       29.94R
$$

...ELSEWHERE IN WISCONSIN...


CITY           SKY/WX    TMP DP  RH WIND       PRES   REMARKS
MILWAUKEE      MOSUNNY   79  55  43 S14       29.96S
MADISON        PTSUNNY   74  57  55 S12       29.93F
GREEN BAY      PTSUNNY   78  54  43 SW10      29.92R
EAU CLAIRE     NOT AVBL
BLACK RVR FLS  FAIR      75  57  53 W7        29.90S
MEDFORD        CLOUDY    66  61  84 SE5       29.90F
WAUSAU         CLOUDY    72  58  61 S7        29.89S
WIS RAPIDS     CLOUDY    71  56  58 SW7       29.93R
MARSHFIELD     PTSUNNY   71  58  63 S7        29.90S
RICE LAKE      CLOUDY    68  60  75 S3        29.89S
$$

...NORTHEAST IOWA...


CITY           SKY/WX    TMP DP  RH WIND       PRES   REMARKS
WATERLOO       MOSUNNY   74  62  66 SW7       29.92
DUBUQUE        MOSUNNY   73  62  68 S9        29.95S
DECORAH        CLOUDY    68  61  77 W6        29.93R
MASON CITY     CLOUDY    70  63  78 SW9       29.93R
CHARLES CITY   MOSUNNY   70  63  78 VRB5      29.93S
OELWEIN        MOSUNNY   73  61  64 W7G16     29.93S
$$

...ELSEWHERE IN IOWA...


CITY           SKY/WX    TMP DP  RH WIND       PRES   REMARKS
DES MOINES     CLOUDY    70  62  76 SW7       29.93R
IOWA CITY      PTSUNNY   76  63  64 S10       29.96S
FORT DODGE     CLOUDY    70  61  73 SW8       29.92S
MARSHALLTOWN   PTSUNNY   72  63  73 SW7       29.93R
CEDAR RAPIDS   PTSUNNY   73  65  75 S13       29.93S
$$

...NORTHERN ILLINOIS...


CITY           SKY/WX    TMP DP  RH WIND       PRES   REMARKS
CHICAGO-OHARE  PTSUNNY   78  55  44 S15       29.99S
CHICAGO-MIDWAY PTSUNNY   81  52  36 SW15      30.00S
MOLINE         MOSUNNY   80  60  50 S12G20    29.94F
ROCKFORD       MOSUNNY   80  59  48 S10       29.98S
PEORIA         SUNNY     78  58  49 S6        30.00S
$$

NOTE: "FAIR" INDICATES FEW OR NO CLOUDS BELOW 12,000 FEET WITH NO
SIGNIFICANT WEATHER AND/OR OBSTRUCTIONS TO VISIBILITY. WIND
SPEEDS ARE IN MILES-PER-HOUR.




USA.gov is the U.S. government's official web portal to all federal, state and local government web resources and services.